Zurück zum Katalog

SL-12 DEB

LostHEO
NORAD 41698·DEBRIS·🇷🇺 Russia

Gestartet Mar 1, 2010 von Baikonur Cosmodrome

Loading…

Nächste Überflüge (nächste 24 Stunden)

TLE

VeraltetSource: Space-Track

Epoche: Feb 27, 2023, 17:07 UTC

1 41698U 10007Q   23058.71380551  .00013492  00000-0  13362-1 0  9999
2 41698  64.6104 217.7222 5696708 349.0052   2.4278  4.37901071135754

Verfolge SL-12 DEB in Echtzeit mit AllMySat

Download on the App Store